#timestamp,LO_Frequency,Hit 
1502006415.7,286046989.2,N
1502006435.5,286046989.5,N
1502006455.3,286046989.6,N
1502006475.2,286046991.6,N
1502006495.9,286046987.4,N
1502006515.7,286046988.7,N
1502006535.6,286046988.8,N
1502006555.4,286046989.7,N
1502006575.2,286046988.4,N
1502006595.0,286046987.2,N
1502006595.9,286046987.2,N
1502006615.8,286046987.2,N
1502006635.6,286046988.1,N
1502006655.4,286046989.6,N
1502006675.3,286046987.4,N
1502006695.1,286046989.9,N
1502006715.8,286046988.5,N
1502006735.7,286046987.0,N
1502006755.5,286046987.9,N
1502006775.3,286046987.0,N
1502006795.2,286046989.5,N
1502006815.9,286046989.4,N
1502006835.7,286046988.7,N
1502006855.6,286046991.3,N
1502006875.4,286046988.9,N
1502006895.2,286046991.5,N
1502006915.0,286046989.6,N
1502006915.9,286046989.6,N
1502006935.8,286046989.2,N
1502006955.6,286046987.4,N
1502006975.4,286046987.7,N
1502006995.3,286046985.4,N
1502007015.1,286046987.8,N
1502007035.8,286046987.5,N
1502007055.7,286046985.7,N
1502007075.5,286046988.2,N
1502007095.3,286046985.8,N
1502007115.2,286046986.1,N
1502007135.9,286046987.2,N
1502007155.7,286046986.9,N
1502007175.6,286046987.1,N
1502007195.4,286046986.4,N
1502007215.2,286046986.2,N
1502007235.0,286046987.9,N
1502007235.9,286046987.9,N
1502007255.8,286046985.5,N
1502007275.6,286046986.5,N
1502007295.4,286046986.1,N
1502007315.3,286046985.3,N
1502007335.1,286046985.6,N
1502007355.8,286046983.8,N
1502007375.7,286046983.9,N
1502007395.5,286046985.1,N
1502007415.3,286046982.1,N
1502007435.2,286046983.9,N
1502007455.9,286046984.2,N
1502007475.7,286046983.8,N
1502007495.6,286046986.7,N
1502007515.4,286046982.2,N
1502007535.2,286046982.1,N
1502007555.0,286046984.9,N
1502007555.9,286046984.9,N
1502007575.8,286046985.0,N
1502007595.6,286046984.4,N
1502007615.4,286046984.9,N
1502007635.3,286046984.9,N
1502007655.1,286046985.1,N
1502007675.8,286046983.8,N
1502007695.7,286046984.8,N
1502007715.5,286046982.8,N
1502007735.3,286046984.4,N
1502007755.2,286046985.1,N
1502007775.9,286046984.1,N
1502007795.7,286046984.5,N
1502007815.6,286046984.0,N
1502007835.4,286046984.1,N
1502007855.2,286046986.7,N
1502007875.0,286046983.8,N
1502007875.9,286046983.8,N
1502007895.8,286046983.8,N
1502007915.6,286046983.7,N
1502007935.4,286046983.7,N
1502007955.3,286046984.0,N
1502007975.1,286046983.7,N
1502007995.8,286046986.4,N
1502008015.7,286046986.4,N
1502008035.5,286046984.9,N
1502008055.3,286046984.9,N
1502008075.2,286046985.2,N
1502008095.9,286046984.3,N
1502008115.7,286046984.3,N
1502008135.6,286046983.9,N
1502008155.4,286046984.0,N
1502008175.2,286046982.4,N
1502008195.0,286046982.4,N
1502008196.0,286046982.4,N
1502008215.8,286046982.3,N
1502008235.6,286046982.3,N
1502008255.4,286046984.5,N
1502008275.3,286046983.2,N
1502008295.1,286046982.3,N
1502008315.8,286046982.8,N
1502008335.7,286046983.6,N
1502008355.5,286046983.3,N
1502008375.3,286046983.1,N
1502008395.2,286046982.3,N
1502008415.9,286046982.5,N
1502008435.7,286046982.6,N
1502008455.6,286046982.5,N
1502008475.4,286046984.9,N
1502008495.2,286046984.8,N
1502008515.0,286046985.1,N
1502008515.9,286046985.1,N
1502008535.8,286046984.3,N
1502008555.6,286046982.5,N
1502008575.4,286046982.8,N
1502008595.3,286046982.1,N
1502008615.1,286046982.9,N
1502008635.8,286046982.6,N
1502008655.7,286046984.5,N
1502008675.5,286046982.6,N
1502008695.3,286046984.8,N
1502008715.2,286046982.1,N
1502008735.9,286046983.0,N
1502008755.7,286046982.3,N
1502008775.6,286046983.2,N
1502008795.4,286046983.1,N
1502008815.2,286046983.1,N
1502008835.0,286046983.4,N
1502008836.0,286046983.4,N
1502008855.8,286046983.2,N
1502008875.6,286046981.4,N
1502008895.4,286046983.3,N
1502008915.3,286046982.1,N
1502008935.1,286046983.3,N
1502008955.8,286046980.6,N
1502008975.7,286046981.4,N
1502008995.5,286046981.9,N
1502009015.3,286046980.6,N
1502009035.2,286046979.3,N
1502009055.9,286046981.7,N
1502009075.7,286046983.3,N
1502009095.6,286046980.9,N
1502009115.4,286046981.7,N
1502009135.2,286046982.3,N
1502009155.0,286046984.7,N
1502009156.0,286046984.7,N
1502009175.8,286046982.5,N
1502009195.6,286046980.5,N
1502009215.4,286046982.4,N
1502009235.3,286046983.6,N
1502009255.1,286046980.9,N
1502009275.8,286046983.5,N
1502009295.7,286046982.5,N
1502009315.5,286046980.5,N
1502009335.3,286046980.9,N
1502009355.2,286046980.5,N
1502009375.9,286046982.5,N
1502009395.7,286046980.7,N
1502009415.6,286046979.3,N
1502009435.4,286046981.2,N
1502009455.2,286046980.6,N
1502009475.0,286046981.6,N
1502009475.9,286046981.6,N
1502009495.8,286046981.1,N
1502009515.6,286046983.1,N
1502009535.4,286046981.7,N
1502009555.3,286046979.0,N
1502009575.1,286046980.2,N
1502009595.8,286046981.2,N
1502009615.7,286046979.7,N
1502009635.5,286046978.9,N
1502009655.3,286046979.2,N
1502009675.2,286046979.3,N
1502009695.9,286046979.1,N
1502009715.7,286046979.6,N
1502009735.6,286046977.7,N
1502009755.4,286046981.2,N
1502009775.2,286046979.7,N
1502009795.0,286046981.7,N
1502009795.9,286046981.7,N
1502009815.8,286046979.0,N
1502009835.6,286046979.6,N
1502009855.4,286046980.0,N
1502009875.3,286046977.9,N
1502009895.1,286046979.4,N
1502009915.8,286046980.1,N
1502009935.7,286046977.8,N
1502009955.5,286046977.7,N
1502009975.3,286046977.8,N
1502009995.2,286046980.3,N
